Regional Weather Roundup
Issued by NWS

Home | Current Version | Previous Version | Text Only | Print | Product List | Glossary On
Versions: 1 2 3 4 5 6 7 8 9 10 11 12 13 14 15 16 17 18 19 20 21 22 23 24 25 26 27 28 29 30 31 32 33 34 35 36 37 38 39 40 41 42 43 44 45 46 47 48 49 50
000
ASUS43 KDTX 032010
RWRMI
MICHIGAN HOURLY REGIONAL WEATHER ROUNDUP
NATIONAL WEATHER SERVICE DETROIT/PONTIAC MI
400 PM EDT FRI JUL 03 2015

NOTE: "FAIR" INDICATES FEW OR NO CLOUDS BELOW 12,000 FEET WITH NO
SIGNIFICANT WEATHER AND/OR OBSTRUCTION TO VISIBILITY.

MIZ047>049-052>055-059>063-066>070-074>076-081>083-032100-
SOUTHEAST LOWER MICHIGAN

CITY           SKY/WX    TMP DP  RH WIND       PRES   REMARKS
ADRIAN         CLOUDY    73  56  54 NE3       29.95F
ALMA           PTSUNNY   73  44  35 CALM      29.97F
ANN ARBOR      PTSUNNY   72  56  57 CALM      29.96F
BAD AXE        PTSUNNY   71  43  37 CALM      29.97F
CARO           PTSUNNY   72  51  46 CALM      29.96F
DETROIT CITY   PTSUNNY   72  56  57 E8        29.96F
DETROIT        PTSUNNY   75  55  49 CALM      29.96F
FLINT          MOSUNNY   76  46  34 VRB3      29.97F
GROSSE ILE     PTSUNNY   70  54  56 S3        29.95F
HILLSDALE      PTSUNNY   73  53  49 N6        29.96F
HOWELL         PTSUNNY   72  50  46 W3        29.97F

CITY           SKY/WX    TMP DP  RH WIND       PRES   REMARKS
JACKSON        PTSUNNY   70  54  56 NW8       29.96F
LAMBERTVILLE   CLOUDY    73  54  52 NE5       29.96F
LANSING        PTSUNNY   74  47  38 NE6       29.97F
LAPEER         FAIR      74  46  37 SW5       29.97F
MASON          PTSUNNY   71  53  53 S5        29.96F
MONROE         PTSUNNY   69  54  60 E3        29.96S
MT. CLEMENS    PTSUNNY   71  54  54 S7        29.95F
PONTIAC        PTSUNNY   74  46  36 VRB5      29.96F
PORT HOPE        N/A     65  53  65 E14       29.96F
PORT HURON     PTSUNNY   73  55  53 SE6       29.97S
TRI CITIES     PTSUNNY   75  44  33 SE3       29.97F
MIDLAND        FAIR      74  41  31 CALM      29.95F
TROY           MOSUNNY   75  51  43 CALM      29.97F
SAGINAW HB     PTSUNNY   72  41  33 N3        29.96F
$$
MIZ043>046-050>051-056>058-064>065-071>073-077>080-032100-
SOUTHWEST LOWER MICHIGAN

CITY           SKY/WX    TMP DP  RH WIND       PRES   REMARKS
BATTLE CREEK   MOSUNNY   76  53  44 E5        29.96F
BENTON HARBOR  MOSUNNY   72  55  55 VRB5      29.95F
BIG RAPIDS     SUNNY     74  43  33 CALM      29.96F
COLDWATER      MOSUNNY   73  51  46 N3        29.95F
FREMONT        FAIR      75  42  31 CALM      29.95F
HOLLAND        MOSUNNY   75  55  49 VRB7      29.96F
GRAND RAPIDS   PTSUNNY   73  48  41 S6        29.96F
IONIA          FAIR      74  47  38 NE3       29.96F
KALAMAZOO      MOSUNNY   75  52  44 VRB3      29.95F
LUDINGTON      SUNNY     71  51  48 SW6       29.97F
MARSHALL       MOSUNNY   72  53  51 CALM      29.95F
MOUNT PLEASANT MOSUNNY   73  46  38 E3        29.96F
MUSKEGON       MOSUNNY   73  49  42 W10       29.96F
SOUTH HAVEN    MOSUNNY   71  53  53 NW9       29.96F
$$
MIZ016>042-032100-
NORTHERN LOWER MICHIGAN

CITY           SKY/WX    TMP DP  RH WIND       PRES   REMARKS
ALPENA         PTSUNNY   77  49  37 SW9       29.93F
BEAVER ISLAND  PTSUNNY   67  50  54 SW10G18   29.92S
BELLAIRE       MOSUNNY   75  50  41 SW3       29.94S
CADILLAC       MOSUNNY   76  52  44 W6        29.96F
CHARLEVOIX     MOSUNNY   72  52  49 SW12G17   29.96S
FRANKFORT      SUNNY     70  44  39 SW6       29.96S
GAYLORD        SUNNY     72  49  44 VRB7      29.95F
GRAYLING       MOSUNNY   75  52  44 W6        29.96S
HARBOR SPRINGS PTSUNNY   71  53  54 W7        29.92F
HOUGHTON LAKE  SUNNY     74  49  41 W5        29.96F
MANISTEE       SUNNY     70  46  43 W8        29.97F
OSCODA         MOSUNNY   73  39  28 SE7       29.96S
PELLSTON       MOSUNNY   71  52  50 SW10G17   29.93F
ROGERS CITY    SUNNY     76  53  44 W8        29.92F
TRAVERSE CITY  CLOUDY    76  50  40 VRB7      29.92F
$$
MIZ007>008-015-032100-
EASTERN UPPER MICHIGAN

CITY           SKY/WX    TMP DP  RH WIND       PRES   REMARKS
KINROSS        CLOUDY    68  52  56 SW7       29.90S
MACKINAC ISLAN PTSUNNY   67  53  61 SW12G18   29.91S
NEWBERRY       CLOUDY    67  56  68 S8G18     29.88F
S. S. MARIE    CLOUDY    68  54  60 SW13      29.88R
MUNISING         N/A     71  60  68 CALM      29.85S
$$
MIZ004>006-011>014-085-032100-
CENTRAL UPPER MICHIGAN

CITY           SKY/WX    TMP DP  RH WIND       PRES   REMARKS
MANISTIQUE     PTSUNNY   62  55  76 S10       29.88F
ESCANABA       PTSUNNY   68  57  68 S12G17    29.87F
MENOMINEE      MOSUNNY   73  54  49 SW12G20   29.90S
SAWYER-GWINN   MOSUNNY   73  55  53 W13G22    29.86F
$$
MIZ001>003-009>011-084-032100-
WESTERN UPPER MICHIGAN

CITY           SKY/WX    TMP DP  RH WIND       PRES   REMARKS
IRON MOUNTAIN  CLOUDY    74  58  57 SW9       29.87F
HOUGHTON       SUNNY     72  57  59 W17       29.83F
COPPER HARBOR    N/A     72  58  61 NW9G22    29.81S
IRONWOOD       SUNNY     75  63  64 W12       29.85F
$$

ABBREVIATIONS USED IN REMARKS
   TC - TEMPERATURE IN CELSIUS
  WCI - WIND CHILL INDEX
   HX - HEAT INDEX
  VSB - VISIBILITY




USA.gov is the U.S. government's official web portal to all federal, state and local government web resources and services.